CANX-5

Last updated on Thu Mar 05 2026 00:04:02 GMT+0000 (Coordinated Universal Time)

1 40056U 14034D 26063.57605542 .00001603 00000+0 21373-3 0 9996 2 40056 98.3287 295.0047 0012688 353.4130 6.6912 14.81063171619850
UTC large
Height (km)
Speed (km/s)
/
Latitude / Longitude
Inclination (degrees)
Orbital Period (minutes)
Azimuth
Elevation
Range (km)
Doppler Factor

Next 0 passes for location: London (51.5072 / 0.1276)

Sorry there are no passes over London.